Location: Monroe
(41.9160°N, 83.3980°W)
Time: 12:55:30
(UTC-04:00)

Amateur Radio Satellites - All Passes

Search period start: 01 July 2015 12:25
Search period end: 02 July 2015 12:25
Location: Monroe, 41.9160°N, 83.3980°W

Satellite Date Start Highest point End Downlink Frequencies (MHz)
Time Altitude Azimuth
QB50P1 01 Jul 12:29:08 12:33:06 37° 263° (W) 12:37:03 145.935-145.965
ZACube-1 01 Jul 12:35:59 12:39:15 22° 292° (WNW) 12:42:27 437.345
50 SAT 01 Jul 12:36:37 12:40:31 88° 286° (WNW) 12:44:26 437.505
UNISAT 6 01 Jul 12:36:55 12:39:19 14° 270° (W) 12:41:33 437.425
AISAT 01 Jul 12:44:39 12:49:06 88° 282° (WNW) 12:53:29 437.250
NANOSAT C BR1 01 Jul 12:45:19 12:48:54 25° 266° (W) 12:52:24 145.865
UKube-1 01 Jul 12:48:51 12:53:02 48° 288° (WNW) 12:57:11 .
VERMONT LUNAR 01 Jul 12:49:06 12:52:15 65° 186° (S) 12:55:25 437.305
DUCHIFAT 1 01 Jul 12:53:53 12:57:11 21° 267° (W) 13:00:24 145.980
POLYITAN 1 01 Jul 12:54:24 12:57:37 20° 267° (W) 13:00:44 437.675
SPROUT 01 Jul 12:54:54 12:57:48 18° 91° (E) 13:00:49 437.525
Cosmos 2499 01 Jul 13:00:12 13:07:04 51° 284° (WNW) 13:13:57 435.465 / 435.565
HO-68 01 Jul 13:01:51 13:03:31 11° 311° (NW) 13:04:45 435.675
ESTCUBE 1 01 Jul 13:03:33 13:08:08 88° 287° (WNW) 13:12:40 437.505/2401.250
CUBEBUG 1 01 Jul 13:14:05 13:18:28 79° 286° (WNW) 13:22:48 437.445
HUMSAT D 01 Jul 13:25:05 13:27:32 15° 294° (WNW) 13:29:50 437.325/437.525
BUGSAT 1 01 Jul 13:28:05 13:30:23 14° 270° (W) 13:32:30 437.445
VELOX 1 01 Jul 13:35:44 13:39:29 27° 292° (WNW) 13:43:10 145.980
Oscar 19 01 Jul 13:38:04 13:42:53 43° 70° (ENE) 13:47:45 437.125/150
ISS 01 Jul 13:42:43 13:44:39 15° 1° (N) 13:46:35 145.825
ITAMSAT 1 01 Jul 13:44:00 13:46:52 15° 61° (ENE) 13:49:56 435.822/435.867
TISAT 1 01 Jul 13:49:58 13:54:02 47° 99° (E) 13:58:04 437.305
PHONESAT 2.4 01 Jul 13:52:40 13:56:07 71° 180° (S) 13:59:36 2401.200-2431.200
YUBILEINY 01 Jul 13:57:43 14:02:59 18° 58° (ENE) 14:08:44 435.215
RS-15 01 Jul 14:09:49 14:20:53 48° 249° (WSW) 14:32:08 29.354- 29.394
BEESAT 01 Jul 14:13:38 14:16:14 15° 89° (E) 14:19:04 436.000
AO-7 01 Jul 14:14:19 14:17:59 14° 46° (NE) 14:22:06 29.400- 29.500
VERMONT LUNAR 01 Jul 14:26:10 14:28:58 28° 202° (SSW) 14:31:46 437.305
SWISSCUBE 01 Jul 14:27:48 14:31:33 23° 93° (E) 14:35:23 437.505
SPROUT 01 Jul 14:30:04 14:34:05 39° 288° (WNW) 14:38:02 437.525
ITUPSAT 1 01 Jul 14:31:24 14:35:06 22° 93° (E) 14:38:55 437.325
Gurwin Techsat 1B 01 Jul 14:54:09 14:59:23 65° 73° (ENE) 15:04:41 435.225
JAS-2 01 Jul 14:54:26 14:57:34 17° 61° (ENE) 15:00:59 435.910
Oscar 19 01 Jul 15:18:21 15:22:27 23° 267° (W) 15:26:27 437.125/150
ISS 01 Jul 15:19:07 15:21:53 25° 21° (NNE) 15:24:38 145.825
ITAMSAT 1 01 Jul 15:20:35 15:25:48 75° 257° (WSW) 15:31:04 435.822/435.867
TISAT 1 01 Jul 15:26:53 15:29:27 16° 295° (WNW) 15:31:51 437.305
PHONESAT 2.4 01 Jul 15:30:41 15:34:00 42° 197° (SSW) 15:37:19 2401.200-2431.200
STARS 01 Jul 15:48:28 15:50:41 14° 90° (E) 15:53:07 437.465
BEESAT 01 Jul 15:49:49 15:54:33 59° 287° (WNW) 15:59:16 436.000
YUBILEINY 01 Jul 15:52:42 16:01:30 83° 82° (E) 16:10:18 435.215
AO-7 01 Jul 16:01:08 16:09:12 58° 66° (ENE) 16:17:24 29.400- 29.500
SWISSCUBE 01 Jul 16:05:04 16:09:34 39° 290° (WNW) 16:13:59 437.505
ITUPSAT 1 01 Jul 16:08:39 16:13:10 40° 290° (WNW) 16:17:38 437.325
PCSat 01 Jul 16:11:17 16:14:36 17° 106° (ESE) 16:18:09 145.827
Cosmos 2491 01 Jul 16:12:23 16:20:55 57° 91° (E) 16:29:29 435.465 / 435.565
HORYU 2 01 Jul 16:21:21 16:25:43 67° 74° (ENE) 16:30:08 437.375
KKS-1 01 Jul 16:22:35 16:26:57 55° 100° (E) 16:31:18 437.445
BEESAT 3 01 Jul 16:25:32 16:27:48 15° 39° (NE) 16:30:10 437.485
AIST 1 01 Jul 16:26:01 16:29:55 33° 91° (E) 16:33:55
BEESAT 2 01 Jul 16:32:55 16:35:06 14° 39° (NE) 16:37:23 435.950
Cosmos 2504 01 Jul 16:36:04 16:40:55 18° 63° (ENE) 16:46:21 435.465 / 435.565
Gurwin Techsat 1B 01 Jul 16:36:36 16:39:56 16° 271° (W) 16:43:02 435.225
JAS-2 01 Jul 16:37:08 16:42:14 61° 259° (W) 16:47:30 435.910
ISS 01 Jul 16:55:16 16:58:28 57° 219° (SW) 17:01:39 145.825
PHONESAT 2.4 01 Jul 17:09:50 17:11:32 13° 211° (SSW) 17:13:09 2401.200-2431.200
STARS 01 Jul 17:23:15 17:27:32 53° 287° (WNW) 17:31:47 437.465
SO-50 01 Jul 17:26:14 17:29:04 16° 110° (ESE) 17:32:08 436.795
AIST 2 01 Jul 17:28:54 17:31:13 14° 39° (NE) 17:33:38 435.215
CUTE-I 01 Jul 17:33:33 17:36:26 15° 61° (ENE) 17:39:34 437.470
O/OREOS (USA 219) 01 Jul 17:40:01 17:43:06 18° 53° (NE) 17:46:19 437.305
YUBILEINY 01 Jul 17:51:18 17:57:23 20° 280° (W) 18:03:04 435.215
MOZHAYETS 4 01 Jul 17:51:52 17:56:25 51° 99° (E) 18:00:57
PCSat 01 Jul 17:52:08 17:57:31 67° 302° (WNW) 18:02:57 145.827
AO-7 01 Jul 17:55:07 18:02:28 32° 265° (W) 18:09:40 29.400- 29.500
KKS-1 01 Jul 18:00:32 18:03:11 15° 296° (WNW) 18:05:40 437.445
HORYU 2 01 Jul 18:01:22 18:02:55 11° 272° (W) 18:04:11 437.375
BEESAT 3 01 Jul 18:02:13 18:06:17 73° 239° (WSW) 18:10:16 437.485
AIST 1 01 Jul 18:04:15 18:07:41 21° 289° (WNW) 18:11:03
Cubesat XI-IV 01 Jul 18:04:50 18:09:18 28° 66° (ENE) 18:13:54 437.490
BEESAT 2 01 Jul 18:09:38 18:13:44 78° 239° (WSW) 18:17:45 435.950
Cosmos 2491 01 Jul 18:10:29 18:18:18 33° 292° (WNW) 18:25:56 435.465 / 435.565
Cosmos 2504 01 Jul 18:27:45 18:35:25 87° 265° (W) 18:43:39 435.465 / 435.565
SO-50 01 Jul 19:04:26 19:09:08 63° 307° (NW) 19:14:00 436.795
AIST 2 01 Jul 19:06:10 19:10:23 80° 239° (WSW) 19:14:31 435.215
CUTE-I 01 Jul 19:10:34 19:15:55 78° 256° (WSW) 19:21:21 437.470
O/OREOS (USA 219) 01 Jul 19:18:29 19:22:52 50° 252° (WSW) 19:27:14 437.305
STRAND 1 01 Jul 19:23:34 19:26:08 14° 88° (E) 19:28:58 437.568
MOZHAYETS 4 01 Jul 19:30:09 19:33:17 18° 295° (WNW) 19:36:15
PCSat 01 Jul 19:39:20 19:42:05 14° 324° (NW) 19:44:40 145.827
Cubesat XI-IV 01 Jul 19:44:16 19:49:16 39° 263° (W) 19:54:17 437.490
CUBESAT XI-V 01 Jul 19:46:17 19:51:00 69° 101° (ESE) 19:55:39 437.345
PRISM 01 Jul 19:49:14 19:52:25 21° 93° (E) 19:55:39 437.425
HO-68 01 Jul 19:52:55 19:58:21 25° 59° (ENE) 20:03:59 435.675
CUSAT 1 01 Jul 19:55:56 19:58:31 34° 75° (ENE) 20:00:55 437.405
GOMX 1 01 Jul 19:57:43 20:01:38 23° 68° (ENE) 20:05:30 467.674
BRITE-PL 01 Jul 20:04:18 20:09:28 42° 72° (ENE) 20:14:25 437.365/2234.400
Cosmos 2504 01 Jul 20:23:32 20:28:00 16° 279° (W) 20:32:06 435.465 / 435.565
SEEDS 01 Jul 20:26:21 20:28:49 16° 66° (ENE) 20:31:27 437.485
GONETS M04 01 Jul 20:28:29 20:36:13 35° 69° (ENE) 20:44:04
CINEMA 3 01 Jul 20:31:47 20:33:40 13° 65° (ENE) 20:35:43 145.822/145.860
DANDE 01 Jul 20:37:13 20:40:17 82° 260° (W) 20:42:55 436.750
AAUSAT CUBESAT 2 01 Jul 20:45:24 20:48:04 17° 67° (ENE) 20:50:51 437.432
SO-50 01 Jul 20:48:27 20:50:44 13° 328° (NNW) 20:52:55 436.795
DOVE 4 01 Jul 20:56:34 21:01:21 50° 73° (ENE) 21:05:54 437.250
STRAND 1 01 Jul 21:00:48 21:05:57 70° 287° (WNW) 21:11:03 437.568
CUTE 1.7 + AOD 2 01 Jul 21:06:42 21:10:47 52° 74° (ENE) 21:14:54 437.475
COMPASS 1 01 Jul 21:07:26 21:11:11 34° 71° (ENE) 21:14:59 437.405
M-CUBED/EXP-1 PRIME 01 Jul 21:07:43 21:09:13 12° 95° (E) 21:10:59 437.505
CANX-2 01 Jul 21:09:28 21:13:37 63° 74° (ENE) 21:17:48 2200.000
DELFI C3 01 Jul 21:23:42 21:25:45 14° 65° (ENE) 21:27:57 145.870
PRISM 01 Jul 21:24:08 21:27:56 33° 290° (WNW) 21:31:40 437.425
CUBESAT XI-V 01 Jul 21:25:27 21:27:55 14° 297° (WNW) 21:30:10 437.345
GOMX 1 01 Jul 21:34:30 21:39:33 45° 262° (W) 21:44:18 467.674
HO-68 01 Jul 21:38:26 21:45:33 69° 257° (WSW) 21:52:42 435.675
CUBEBUG 2 01 Jul 21:39:33 21:43:16 30° 71° (ENE) 21:46:59 437.445
BRITE-PL 01 Jul 21:43:27 21:48:06 26° 267° (W) 21:52:28 437.365/2234.400
ZACube-1 01 Jul 21:55:53 21:59:26 27° 70° (ENE) 22:03:00 437.345
SEEDS 01 Jul 22:00:16 22:04:17 46° 262° (W) 22:08:20 437.485
CINEMA 3 01 Jul 22:05:52 22:10:27 67° 259° (W) 22:14:51 145.822/145.860
AUBIESAT-1 01 Jul 22:09:05 22:13:06 48° 105° (ESE) 22:17:26 437.475
UKube-1 01 Jul 22:09:46 22:12:10 15° 64° (ENE) 22:14:45 .
Oscar 11 01 Jul 22:10:58 22:15:13 70° 75° (ENE) 22:19:32 145.826/435.025
AAUSAT CUBESAT 2 01 Jul 22:19:28 22:23:23 41° 262° (W) 22:27:19 437.432
GONETS M04 01 Jul 22:25:05 22:33:26 52° 270° (W) 22:41:40
FUNcube-1 01 Jul 22:32:44 22:36:56 68° 76° (ENE) 22:41:06 145.935
DOVE 4 01 Jul 22:35:57 22:39:22 18° 269° (W) 22:42:31 437.250
UWE-3 01 Jul 22:36:39 22:40:57 81° 258° (WSW) 22:45:10 435.000/436.395/437.385
M-CUBED/EXP-1 PRIME 01 Jul 22:40:16 22:44:21 65° 290° (WNW) 22:48:44 437.505
HUMSAT D 01 Jul 22:40:18 22:44:02 35° 71° (ENE) 22:47:48 437.325/437.525
COMPASS 1 01 Jul 22:43:54 22:46:58 19° 268° (W) 22:49:58 437.405
CUTE 1.7 + AOD 2 01 Jul 22:44:58 22:47:05 13° 271° (W) 22:49:00 437.475
CANX-2 01 Jul 22:48:50 22:50:03 11° 273° (W) 22:51:01 2200.000
Cosmos 2499 01 Jul 22:48:56 22:56:30 56° 77° (ENE) 23:04:41 435.465 / 435.565
DELFI C3 01 Jul 22:56:35 23:00:28 48° 261° (W) 23:04:23 145.870
VELOX 1 01 Jul 22:57:09 23:00:55 28° 68° (ENE) 23:04:45 145.980
CUBEBUG 2 01 Jul 23:16:26 23:20:00 24° 266° (W) 23:23:26 437.445
DX 1 01 Jul 23:17:47 23:22:11 85° 79° (E) 23:26:36 434.975-435.025
50 SAT 01 Jul 23:20:56 23:24:39 51° 74° (ENE) 23:28:23 437.505
ZACube-1 01 Jul 23:32:13 23:35:47 25° 266° (W) 23:39:15 437.345
HO-68 01 Jul 23:33:07 23:34:47 10° 277° (W) 23:35:49 435.675
ANTELSAT 01 Jul 23:33:55 23:37:44 30° 96° (E) 23:41:39 437.575/2403.000
QB50P2 01 Jul 23:34:37 23:36:09 12° 88° (E) 23:37:55 145.880/145.840
POPSAT HIP 1 01 Jul 23:36:10 23:37:42 12° 89° (E) 23:39:26 437.405
AISAT 01 Jul 23:42:23 23:46:52 86° 76° (ENE) 23:51:22 437.250
UKube-1 01 Jul 23:43:39 23:47:54 54° 260° (W) 23:52:12 .
AUBIESAT-1 01 Jul 23:44:50 23:47:36 17° 298° (WNW) 23:50:21 437.475
TIGRISAT 01 Jul 23:47:30 23:51:35 40° 98° (E) 23:55:45 435.000
SPROUT 01 Jul 23:50:01 23:52:36 16° 65° (ENE) 23:55:19 437.525
Oscar 11 01 Jul 23:51:15 23:51:59 10° 273° (W) 23:52:26 145.826/435.025
ESTCUBE 1 02 Jul 00:03:13 00:07:46 88° 76° (ENE) 00:12:21 437.505/2401.250
CUBEBUG 1 02 Jul 00:10:06 00:14:34 89° 77° (ENE) 00:19:02 437.445
QB50P1 02 Jul 00:13:45 00:17:32 32° 96° (E) 00:21:20 145.935-145.965
HUMSAT D 02 Jul 00:16:58 00:19:55 18° 268° (W) 00:22:46 437.325/437.525
UNISAT 6 02 Jul 00:25:45 00:30:06 75° 285° (WNW) 00:34:31 437.425
NANOSAT C BR1 02 Jul 00:29:00 00:33:04 47° 99° (E) 00:37:08 145.865
VELOX 1 02 Jul 00:33:30 00:37:25 28° 265° (W) 00:41:16 145.980
DUCHIFAT 1 02 Jul 00:37:00 00:41:08 57° 100° (E) 00:45:16 145.980
POLYITAN 1 02 Jul 00:38:04 00:42:16 63° 102° (ESE) 00:46:26 437.675
TISAT 1 02 Jul 00:42:19 00:46:13 37° 71° (ENE) 00:50:10 437.305
Cosmos 2499 02 Jul 00:42:47 00:49:20 30° 274° (W) 00:56:05 435.465 / 435.565
PCSat 02 Jul 00:57:15 01:01:02 19° 42° (NE) 01:04:55 145.827
50 SAT 02 Jul 00:58:25 00:59:39 11° 271° (W) 01:00:41 437.505
BUGSAT 1 02 Jul 01:07:37 01:11:42 86° 103° (ESE) 01:15:44 437.445
QB50P2 02 Jul 01:08:20 01:12:30 58° 286° (WNW) 01:16:37 145.880/145.840
POPSAT HIP 1 02 Jul 01:09:52 01:14:00 57° 286° (WNW) 01:18:06 437.405
ANTELSAT 02 Jul 01:10:49 01:14:26 25° 291° (WNW) 01:18:02 437.575/2403.000
BEESAT 02 Jul 01:20:28 01:23:44 19° 65° (ENE) 01:27:08 436.000
SPROUT 02 Jul 01:24:08 01:28:19 49° 261° (W) 01:32:32 437.525
TIGRISAT 02 Jul 01:24:57 01:28:07 19° 293° (WNW) 01:31:11 435.000
SWISSCUBE 02 Jul 01:34:43 01:38:43 28° 68° (ENE) 01:42:49 437.505
ITUPSAT 1 02 Jul 01:38:34 01:42:33 28° 68° (ENE) 01:46:38 437.325
QB50P1 02 Jul 01:49:58 01:53:15 22° 292° (WNW) 01:56:26 145.935-145.965
Oscar 19 02 Jul 01:50:39 01:53:17 14° 88° (E) 01:56:09 437.125/150
SO-50 02 Jul 01:55:49 01:59:36 22° 40° (NE) 02:03:26 436.795
NANOSAT C BR1 02 Jul 02:05:58 02:08:34 16° 295° (WNW) 02:11:00 145.865
DUCHIFAT 1 02 Jul 02:14:25 02:16:31 13° 296° (WNW) 02:18:25 145.980
POLYITAN 1 02 Jul 02:15:51 02:17:42 12° 296° (WNW) 02:19:22 437.675
TISAT 1 02 Jul 02:19:05 02:22:09 19° 268° (W) 02:25:07 437.305
Cosmos 2491 02 Jul 02:22:45 02:29:57 29° 65° (ENE) 02:37:20 435.465 / 435.565
RS-15 02 Jul 02:23:24 02:32:02 30° 105° (ESE) 02:41:14 29.354- 29.394
PCSat 02 Jul 02:39:42 02:45:09 79° 243° (WSW) 02:50:33 145.827
STARS 02 Jul 02:46:11 02:48:29 14° 64° (ENE) 02:50:57 437.465
BEESAT 02 Jul 02:56:37 03:01:14 49° 261° (W) 03:05:54 436.000
YUBILEINY 02 Jul 03:01:11 03:06:26 19° 79° (E) 03:12:09 435.215
Gurwin Techsat 1B 02 Jul 03:10:35 03:14:52 25° 93° (E) 03:19:16 435.225
SWISSCUBE 02 Jul 03:12:12 03:16:30 32° 264° (W) 03:20:47 437.505
ITUPSAT 1 02 Jul 03:16:02 03:20:21 33° 264° (W) 03:24:40 437.325
KKS-1 02 Jul 03:20:54 03:25:13 52° 73° (ENE) 03:29:35 437.445
Oscar 19 02 Jul 03:28:07 03:33:13 68° 286° (WNW) 03:38:18 437.125/150
ITAMSAT 1 02 Jul 03:33:19 03:38:10 38° 97° (E) 03:43:01 435.822/435.867
SO-50 02 Jul 03:35:42 03:40:38 64° 240° (WSW) 03:45:26 436.795
JAS-2 02 Jul 03:44:53 03:49:16 19° 90° (E) 03:54:14 435.910
AO-7 02 Jul 04:04:15 04:08:55 17° 87° (E) 04:14:07 29.400- 29.500
AIST 1 02 Jul 04:09:46 04:14:10 83° 263° (W) 04:18:30
HORYU 2 02 Jul 04:14:07 04:15:53 12° 89° (E) 04:17:54 437.375
Cosmos 2491 02 Jul 04:18:56 04:27:35 65° 267° (W) 04:36:07 435.465 / 435.565
STARS 02 Jul 04:20:09 04:24:30 58° 259° (W) 04:28:51 437.465
RS-15 02 Jul 04:32:33 04:43:29 75° 307° (NW) 04:54:48 29.354- 29.394
Gurwin Techsat 1B 02 Jul 04:50:02 04:55:03 42° 290° (WNW) 05:00:00 435.225
YUBILEINY 02 Jul 04:53:31 05:02:14 87° 278° (W) 05:10:59 435.215
MOZHAYETS 4 02 Jul 04:54:02 04:58:25 50° 73° (ENE) 05:02:53
KKS-1 02 Jul 04:59:35 05:02:13 15° 270° (W) 05:04:41 437.445
ITAMSAT 1 02 Jul 05:13:06 05:17:32 28° 294° (WNW) 05:21:51 435.822/435.867
Cosmos 2504 02 Jul 05:19:44 05:21:42 12° 79° (ENE) 05:24:11 435.465 / 435.565
JAS-2 02 Jul 05:28:26 05:34:53 78° 286° (WNW) 05:42:09 435.910
HORYU 2 02 Jul 05:48:35 05:53:01 63° 286° (WNW) 05:57:25 437.375
AO-7 02 Jul 05:54:39 06:03:06 84° 107° (ESE) 06:11:28 29.400- 29.500
Cosmos 2491 02 Jul 06:20:35 06:22:52 11° 286° (WNW) 06:24:25 435.465 / 435.565
MOZHAYETS 4 02 Jul 06:33:03 06:36:00 16° 270° (W) 06:38:47
STRAND 1 02 Jul 06:39:20 06:43:14 23° 65° (ENE) 06:47:16 437.568
PRISM 02 Jul 06:40:11 06:42:52 17° 66° (ENE) 06:45:43 437.425
RS-15 02 Jul 06:48:54 06:58:15 29° 336° (NNW) 07:07:44 29.354- 29.394
CUBESAT XI-V 02 Jul 06:49:41 06:54:21 69° 75° (ENE) 06:59:04 437.345
YUBILEINY 02 Jul 06:54:40 07:00:37 19° 301° (WNW) 07:06:08 435.215
Cosmos 2504 02 Jul 07:06:47 07:14:01 79° 96° (E) 07:21:12 435.465 / 435.565
JAS-2 02 Jul 07:15:50 07:19:18 15° 300° (WNW) 07:22:35 435.910
CUTE-I 02 Jul 07:27:31 07:32:34 41° 97° (E) 07:37:37 437.470
AO-7 02 Jul 07:48:40 07:55:04 24° 306° (NW) 08:01:12 29.400- 29.500
O/OREOS (USA 219) 02 Jul 07:53:24 07:56:14 17° 101° (ESE) 07:59:13 437.305
BEESAT 3 02 Jul 07:56:08 07:58:53 18° 112° (ESE) 08:01:45 437.485
M-CUBED/EXP-1 PRIME 02 Jul 07:57:06 07:58:31 12° 60° (ENE) 08:00:05 437.505
Cubesat XI-IV 02 Jul 08:00:40 08:06:05 82° 102° (ESE) 08:11:28 437.490
DANDE 02 Jul 08:04:23 08:09:13 20° 91° (E) 08:13:40 436.750
BEESAT 2 02 Jul 08:04:34 08:07:16 18° 112° (ESE) 08:10:07 435.950
PRISM 02 Jul 08:14:04 08:18:01 42° 261° (W) 08:22:01 437.425
STRAND 1 02 Jul 08:17:13 08:22:09 46° 261° (W) 08:27:08 437.568
CUBESAT XI-V 02 Jul 08:30:15 08:32:22 12° 273° (W) 08:34:13 437.345
VERMONT LUNAR 02 Jul 08:38:45 08:39:49 11° 149° (SSE) 08:40:58 437.305
CANX-2 02 Jul 08:56:52 08:57:51 11° 87° (E) 08:59:05 2200.000
AUBIESAT-1 02 Jul 08:57:58 09:01:13 61° 70° (ENE) 09:04:36 437.475
DOVE 4 02 Jul 08:58:11 08:58:48 10° 87° (E) 08:59:40 437.250
CUSAT 1 02 Jul 08:59:47 09:06:38 69° 99° (E) 09:11:54 437.405
Cosmos 2504 02 Jul 09:03:32 09:08:26 18° 298° (WNW) 09:13:00 435.465 / 435.565
AIST 2 02 Jul 09:05:12 09:08:16 20° 112° (ESE) 09:11:27 435.215
HO-68 02 Jul 09:06:41 09:11:58 23° 91° (E) 09:17:29 435.675
RS-15 02 Jul 09:07:09 09:15:40 23° 10° (N) 09:24:36 29.354- 29.394
CUTE-I 02 Jul 09:07:59 09:12:29 27° 294° (WNW) 09:16:52 437.470
M-CUBED/EXP-1 PRIME 02 Jul 09:29:59 09:33:04 37° 257° (WSW) 09:36:14 437.505
GONETS M04 02 Jul 09:30:03 09:37:55 40° 87° (E) 09:45:54
O/OREOS (USA 219) 02 Jul 09:31:03 09:35:20 45° 297° (WNW) 09:39:38 437.305
BEESAT 3 02 Jul 09:32:39 09:36:33 43° 308° (NW) 09:40:30 437.485
ISS 02 Jul 09:34:26 09:37:22 33° 138° (SE) 09:40:21 145.825
GOMX 1 02 Jul 09:36:19 09:40:26 49° 99° (E) 09:44:28 467.674
BEESAT 2 02 Jul 09:41:05 09:45:02 45° 308° (NW) 09:49:02 435.950
Cubesat XI-IV 02 Jul 09:42:36 09:45:34 15° 300° (WNW) 09:48:17 437.490
SEEDS 02 Jul 09:44:19 09:47:57 27° 95° (E) 09:51:37 437.485
DANDE 02 Jul 09:44:38 09:52:15 73° 280° (W) 09:58:08 436.750
BRITE-PL 02 Jul 09:47:34 09:51:58 71° 285° (WNW) 09:56:07 437.365/2234.400
PHONESAT 2.4 02 Jul 09:56:51 09:57:08 10° 147° (SSE) 09:57:33 2401.200-2431.200
Oscar 11 02 Jul 09:59:50 10:01:34 12° 88° (E) 10:03:32 145.826/435.025
CINEMA 3 02 Jul 10:00:47 10:04:11 25° 94° (E) 10:07:41 145.822/145.860
AAUSAT CUBESAT 2 02 Jul 10:02:00 10:05:39 29° 95° (E) 10:09:21 437.432
VERMONT LUNAR 02 Jul 10:13:20 10:16:16 40° 164° (SSE) 10:19:15 437.305
FUNcube-1 02 Jul 10:22:29 10:24:03 12° 89° (E) 10:25:52 145.935
COMPASS 1 02 Jul 10:25:26 10:29:38 63° 101° (E) 10:33:50 437.405
UWE-3 02 Jul 10:26:52 10:29:45 18° 92° (E) 10:32:48 435.000/436.395/437.385
CUTE 1.7 + AOD 2 02 Jul 10:27:04 10:31:21 80° 284° (WNW) 10:35:38 437.475
QB50P2 02 Jul 10:29:07 10:30:03 11° 63° (ENE) 10:31:14 145.880/145.840
CANX-2 02 Jul 10:30:01 10:34:17 66° 285° (WNW) 10:38:32 2200.000
POPSAT HIP 1 02 Jul 10:30:30 10:31:27 11° 63° (ENE) 10:32:38 437.405
DOVE 4 02 Jul 10:33:00 10:37:08 61° 286° (WNW) 10:41:13 437.250
ANTELSAT 02 Jul 10:33:37 10:37:14 27° 69° (ENE) 10:40:54 437.575/2403.000
DELFI C3 02 Jul 10:35:47 10:38:52 21° 93° (E) 10:42:01 145.870
AIST 2 02 Jul 10:42:31 10:46:35 42° 309° (NW) 10:50:41 435.215
CUSAT 1 02 Jul 10:45:08 10:49:26 18° 290° (WNW) 10:52:54 437.405
TIGRISAT 02 Jul 10:46:49 10:50:44 36° 71° (ENE) 10:54:40 435.000
HO-68 02 Jul 10:53:15 11:00:22 69° 290° (WNW) 11:07:26 435.675
CUBEBUG 2 02 Jul 11:05:53 11:10:02 64° 101° (E) 11:14:16 437.445
QB50P1 02 Jul 11:06:58 11:10:31 26° 69° (ENE) 11:14:06 145.935-145.965
DX 1 02 Jul 11:07:25 11:09:36 14° 90° (E) 11:12:00 434.975-435.025
ISS 02 Jul 11:10:47 11:13:46 33° 335° (NNW) 11:16:46 145.825
GOMX 1 02 Jul 11:15:48 11:18:13 15° 296° (WNW) 11:20:25 467.674
ZACube-1 02 Jul 11:19:20 11:23:27 55° 99° (E) 11:27:39 437.345
SEEDS 02 Jul 11:20:06 11:23:40 26° 291° (WNW) 11:27:12 437.485
RS-15 02 Jul 11:20:59 11:32:01 47° 42° (NE) 11:43:36 29.354- 29.394
NANOSAT C BR1 02 Jul 11:21:48 11:25:41 37° 71° (ENE) 11:29:38 145.865
UNISAT 6 02 Jul 11:25:01 11:29:20 81° 257° (WSW) 11:33:37 437.425
GONETS M04 02 Jul 11:26:18 11:34:42 46° 287° (WNW) 11:43:01
Cosmos 2499 02 Jul 11:27:00 11:33:29 42° 90° (E) 11:40:05 435.465 / 435.565
DUCHIFAT 1 02 Jul 11:29:30 11:33:31 44° 73° (ENE) 11:37:34 145.980
POLYITAN 1 02 Jul 11:31:13 11:35:18 49° 73° (ENE) 11:39:26 437.675
UKube-1 02 Jul 11:31:15 11:34:42 23° 94° (E) 11:38:12 .
PHONESAT 2.4 02 Jul 11:31:25 11:34:36 36° 161° (SSE) 11:37:50 2401.200-2431.200
DANDE 02 Jul 11:33:28 11:36:04 12° 296° (WNW) 11:38:04 436.750
Oscar 11 02 Jul 11:33:55 11:38:12 59° 286° (WNW) 11:42:28 145.826/435.025
AISAT 02 Jul 11:34:04 11:36:40 16° 90° (E) 11:39:26 437.250
AAUSAT CUBESAT 2 02 Jul 11:37:43 11:41:10 24° 291° (WNW) 11:44:32 437.432
CINEMA 3 02 Jul 11:37:52 11:41:24 27° 290° (WNW) 11:44:54 145.822/145.860
VERMONT LUNAR 02 Jul 11:49:56 11:53:04 69° 180° (S) 11:56:13 437.305
ESTCUBE 1 02 Jul 11:56:37 11:59:41 18° 91° (E) 12:02:53 437.505/2401.250
FUNcube-1 02 Jul 11:56:41 12:00:48 57° 286° (WNW) 12:04:59 145.935
BUGSAT 1 02 Jul 11:57:30 12:01:41 62° 74° (ENE) 12:05:52 437.445
HUMSAT D 02 Jul 11:58:55 12:03:03 66° 101° (E) 12:07:13 437.325/437.525
CUBEBUG 1 02 Jul 11:59:59 12:02:35 16° 90° (E) 12:05:21 437.445
QB50P2 02 Jul 12:01:10 12:05:25 75° 258° (WSW) 12:09:41 145.880/145.840
POPSAT HIP 1 02 Jul 12:02:32 12:06:48 75° 258° (WSW) 12:11:03 437.405
UWE-3 02 Jul 12:02:35 12:06:28 37° 288° (WNW) 12:10:22 435.000/436.395/437.385
COMPASS 1 02 Jul 12:02:59 12:04:50 12° 296° (WNW) 12:06:31 437.405
ANTELSAT 02 Jul 12:10:22 12:14:01 26° 265° (W) 12:17:35 437.575/2403.000
DELFI C3 02 Jul 12:10:23 12:14:00 31° 289° (WNW) 12:17:35 145.870
